Tracking 18987 objects as of 25-Feb-2018
HD Live streaming from Space Station
objects crossing your sky now

FENGYUN 1C DEB

Track FENGYUN 1C DEB now!
10-day predictions


NORAD ID: 29991
Int'l Code: 1999-025LR
Perigee: 803.0 km
Apogee: 809.1 km
Inclination: 102.2 °
Period: 100.9 minutes
Semi major axis: 7177 km
RCS: 0.1137 m2 (medium)
Launch date: May 10, 1999
Source: People's Republic of China (PRC)
Launch site: Taiyaun Space Center, China (TSC)

Note: This is SATELLITE DEBRIS
aabbcc
Your satellite tracking list
Your tracking list is empty




NASA's NSSDC Master Catalog

Two Line Element Set (TLE):
1 29991U 99025LR  18055.84550251  .00001217  00000-0  52255-3 0  9997
2 29991 102.2041 155.2603 0004226  17.2850  92.1082 14.27850876574849
Source of the keplerian elements: AFSPC